Auburn, IN

12:44 PM EST on February 14, 2016 (GMT -0500)
Auburn

Weather History for KGWB - March, 2014

Change the Weather History Date:

Thursday, March 6, 2014

  Actual Average (KFWA) Record (KFWA)
Temperature  
Mean Temperature 21 °F 34 °F  
Max Temperature 28 °F 44 °F 72 °F (1983)
Min Temperature 14 °F 26 °F -4 °F (1960)
Degree Days  
Heating Degree Days 44 31  
Month to date heating degree days 189  
Since 1 July heating degree days 4787  
Cooling Degree Days 0 0  
Month to date cooling degree days 0  
Year to date cooling degree days 0  
Moisture  
Dew Point 11 °F    
Average Humidity 67    
Maximum Humidity 86    
Minimum Humidity 55    
Precipitation  
Precipitation 0.00 in 0.08 in 0.59 in (1908)
Month to date precipitation 0.47  
Year to date precipitation 4.77  
Snow  
Snow 0.00 in 0.20 in 5.20 in (1923)
Month to date snowfall 1.1  
Since 1 July snowfall 29.5  
Snow Depth -    
Sea Level Pressure  
Sea Level Pressure 30.30 in    
Wind  
Wind Speed 9 mph (ENE)    
Max Wind Speed 14 mph    
Max Gust Speed 17 mph    
Visibility 10 miles    
Events      
T = Trace of Precipitation, MM = Missing Value Source: NWS Daily Summary

Daily Weather History Graph

Daily Weather History Graph

Search for Another Location

Airport or City:

Trip Planner

Search our weather history database for the weather conditions in past years. The results will help you decide how hot, cold, wet, or windy it might be!

Date:

Astronomy

Mar. 06, 2014 Rise Set
Actual Time 7:06 AM EST 6:36 PM EST
Civil Twilight 6:39 AM EST 7:04 PM EST
Nautical Twilight 6:07 AM EST 7:36 PM EST
Astronomical Twilight 5:35 AM EST 8:08 PM EST
Moon 10:10 AM EST (3/6) No Moon Set
Length of Visible Light 12h 25m
Length of Day
11h 30m
Waxing Crescent, 32% of the Moon is Illuminated
Mar 6
Waxing Crescent
Mar 8
First Quarter
Mar 16
Full
Mar 23
Last Quarter
Mar 30
New

Hourly Weather History & Observations

Time (EST) Temp. Windchill Dew Point Humidity Pressure Visibility Wind Dir Wind Speed Gust Speed Precip Events Conditions
12:15 AM 15.8 °F 3.4 °F 8.6 °F 73% 30.43 in 10.0 mi ENE 10.4 mph - N/A   Clear
12:35 AM 15.8 °F 4.2 °F 8.6 °F 73% 30.44 in 10.0 mi ENE 9.2 mph - N/A   Clear
12:55 AM 15.8 °F 5.1 °F 6.8 °F 68% 30.44 in 10.0 mi ENE 8.1 mph - N/A   Clear
1:15 AM 15.8 °F 4.2 °F 8.6 °F 73% 30.44 in 10.0 mi ENE 9.2 mph - N/A   Clear
1:35 AM 15.8 °F 3.4 °F 8.6 °F 73% 30.43 in 10.0 mi ENE 10.4 mph - N/A   Clear
1:55 AM 17.6 °F 5.0 °F 8.6 °F 68% 30.42 in 10.0 mi ENE 11.5 mph - N/A   Scattered Clouds
2:15 AM 17.6 °F 5.0 °F 8.6 °F 68% 30.42 in 10.0 mi ENE 11.5 mph - N/A   Mostly Cloudy
2:35 AM 17.6 °F 5.0 °F 8.6 °F 68% 30.41 in 10.0 mi ENE 11.5 mph - N/A   Overcast
2:55 AM 17.6 °F 5.7 °F 8.6 °F 68% 30.40 in 10.0 mi ENE 10.4 mph - N/A   Overcast
3:15 AM 17.6 °F 5.7 °F 8.6 °F 68% 30.40 in 10.0 mi ENE 10.4 mph - N/A   Overcast
3:35 AM 17.6 °F 6.4 °F 8.6 °F 68% 30.40 in 10.0 mi ENE 9.2 mph - N/A   Overcast
3:55 AM 17.6 °F 5.7 °F 8.6 °F 68% 30.39 in 10.0 mi ENE 10.4 mph - N/A   Overcast
4:15 AM 17.6 °F 5.0 °F 8.6 °F 68% 30.38 in 10.0 mi ENE 11.5 mph - N/A   Mostly Cloudy
4:35 AM 17.6 °F 3.7 °F 8.6 °F 68% 30.38 in 10.0 mi ENE 13.8 mph 17.3 mph N/A   Overcast
4:55 AM 17.6 °F 5.0 °F 8.6 °F 68% 30.38 in 10.0 mi ENE 11.5 mph - N/A   Overcast
5:15 AM 17.6 °F 4.3 °F 8.6 °F 68% 30.38 in 10.0 mi East 12.7 mph - N/A   Overcast
5:35 AM 17.6 °F 5.0 °F 8.6 °F 68% 30.38 in 10.0 mi ENE 11.5 mph - N/A   Overcast
5:55 AM 17.6 °F 6.4 °F 10.4 °F 73% 30.39 in 10.0 mi ENE 9.2 mph - N/A   Overcast
6:15 AM 17.6 °F 6.4 °F 10.4 °F 73% 30.39 in 10.0 mi ENE 9.2 mph - N/A   Overcast
6:35 AM 17.6 °F 5.7 °F 10.4 °F 73% 30.39 in 10.0 mi ENE 10.4 mph - N/A   Overcast
6:55 AM 17.6 °F 6.4 °F 10.4 °F 73% 30.38 in 10.0 mi ENE 9.2 mph - N/A   Overcast
7:15 AM 17.6 °F 5.7 °F 10.4 °F 73% 30.37 in 10.0 mi East 10.4 mph - N/A   Mostly Cloudy
7:35 AM 15.8 °F 3.4 °F 8.6 °F 73% 30.37 in 10.0 mi ENE 10.4 mph - N/A   Clear
7:55 AM 17.6 °F 4.3 °F 8.6 °F 68% 30.37 in 10.0 mi ENE 12.7 mph - N/A   Clear
8:15 AM 17.6 °F 4.3 °F 8.6 °F 68% 30.37 in 10.0 mi ENE 12.7 mph - N/A   Clear
8:35 AM 17.6 °F 4.3 °F 8.6 °F 68% 30.37 in 10.0 mi ENE 12.7 mph - N/A   Clear
8:55 AM 17.6 °F 4.3 °F 10.4 °F 73% 30.36 in 10.0 mi ENE 12.7 mph - N/A   Clear
9:15 AM 17.6 °F 5.7 °F 10.4 °F 73% 30.36 in 10.0 mi East 10.4 mph - N/A   Clear
9:35 AM 19.4 °F 7.9 °F 10.4 °F 68% 30.35 in 10.0 mi East 10.4 mph - N/A   Clear
9:55 AM 19.4 °F 7.9 °F 10.4 °F 68% 30.34 in 10.0 mi East 10.4 mph - N/A   Clear
10:15 AM 21.2 °F 10.1 °F 10.4 °F 63% 30.34 in 10.0 mi East 10.4 mph - N/A   Clear
10:35 AM 23.0 °F 12.4 °F 10.4 °F 59% 30.35 in 10.0 mi East 10.4 mph 16.1 mph N/A   Clear
10:55 AM 23.0 °F 13.9 °F 12.2 °F 63% 30.35 in 10.0 mi East 8.1 mph - N/A   Clear
11:15 AM 24.8 °F 15.3 °F 12.2 °F 59% 30.34 in 10.0 mi East 9.2 mph - N/A   Clear
11:40 AM 24.8 °F 16.1 °F 12.2 °F 59% 30.34 in 10.0 mi East 8.1 mph - N/A   Clear
11:55 AM 24.8 °F 16.9 °F 12.2 °F 59% 30.34 in 10.0 mi ENE 6.9 mph - N/A   Clear
12:15 PM 26.6 °F 20.0 °F 12.2 °F 55% 30.32 in 10.0 mi East 5.8 mph - N/A   Clear
12:35 PM 26.6 °F 21.2 °F 14.0 °F 59% 30.31 in 10.0 mi ENE 4.6 mph - N/A   Clear
12:55 PM 28.4 °F 22.2 °F 14.0 °F 55% 30.30 in 10.0 mi ENE 5.8 mph - N/A   Clear
1:15 PM 26.6 °F 18.2 °F 14.0 °F 59% 30.28 in 10.0 mi ENE 8.1 mph - N/A   Clear
1:35 PM 28.4 °F 20.4 °F 14.0 °F 55% 30.28 in 10.0 mi East 8.1 mph - N/A   Clear
1:55 PM 28.4 °F 21.2 °F 14.0 °F 55% 30.27 in 10.0 mi East 6.9 mph - N/A   Clear
2:15 PM 28.4 °F 21.2 °F 14.0 °F 55% 30.26 in 10.0 mi East 6.9 mph - N/A   Clear
2:35 PM 28.4 °F 22.2 °F 14.0 °F 55% 30.26 in 10.0 mi East 5.8 mph - N/A   Clear
2:55 PM 28.4 °F 20.4 °F 14.0 °F 55% 30.25 in 10.0 mi ENE 8.1 mph - N/A   Clear
3:15 PM 28.4 °F 19.7 °F 14.0 °F 55% 30.24 in 10.0 mi East 9.2 mph - N/A   Clear
3:35 PM 28.4 °F 21.2 °F 14.0 °F 55% 30.24 in 10.0 mi East 6.9 mph - N/A   Clear
3:55 PM 28.4 °F 22.2 °F 14.0 °F 55% 30.23 in 10.0 mi East 5.8 mph - N/A   Clear
4:15 PM 28.4 °F 20.4 °F 14.0 °F 55% 30.23 in 10.0 mi ENE 8.1 mph - N/A   Clear
4:35 PM 28.4 °F 19.7 °F 14.0 °F 55% 30.22 in 10.0 mi ENE 9.2 mph - N/A   Clear
4:55 PM 26.6 °F 18.2 °F 14.0 °F 59% 30.22 in 10.0 mi ENE 8.1 mph - N/A   Clear
5:15 PM 28.4 °F 21.2 °F 14.0 °F 55% 30.22 in 10.0 mi East 6.9 mph - N/A   Clear
5:35 PM 26.6 °F 19.1 °F 14.0 °F 59% 30.21 in 10.0 mi East 6.9 mph - N/A   Clear
5:55 PM 26.6 °F 19.1 °F 14.0 °F 59% 30.21 in 10.0 mi East 6.9 mph - N/A   Clear
6:15 PM 24.8 °F 17.9 °F 14.0 °F 64% 30.21 in 10.0 mi East 5.8 mph - N/A   Clear
6:35 PM 23.0 °F 14.7 °F 14.0 °F 68% 30.20 in 10.0 mi East 6.9 mph - N/A   Clear
6:55 PM 23.0 °F 14.7 °F 14.0 °F 68% 30.19 in 10.0 mi East 6.9 mph - N/A   Clear
7:15 PM 21.2 °F 14.9 °F 12.2 °F 68% 30.19 in 10.0 mi East 4.6 mph - N/A   Clear
7:35 PM 21.2 °F 13.6 °F 12.2 °F 68% 30.18 in 10.0 mi East 5.8 mph - N/A   Clear
7:55 PM 21.2 °F 14.9 °F 12.2 °F 68% 30.18 in 10.0 mi East 4.6 mph - N/A   Clear
8:15 PM 19.4 °F 12.8 °F 12.2 °F 74% 30.18 in 10.0 mi East 4.6 mph - N/A   Clear
8:35 PM 19.4 °F 11.5 °F 12.2 °F 74% 30.18 in 10.0 mi East 5.8 mph - N/A   Clear
8:55 PM 19.4 °F 12.8 °F 12.2 °F 74% 30.18 in 10.0 mi East 4.6 mph - N/A   Clear
9:15 PM 19.4 °F 12.8 °F 12.2 °F 74% 30.17 in 10.0 mi East 4.6 mph - N/A   Clear
9:35 PM 17.6 °F 12.3 °F 10.4 °F 73% 30.17 in 10.0 mi East 3.5 mph - N/A   Clear
9:55 PM 17.6 °F 12.3 °F 12.2 °F 79% 30.19 in 10.0 mi NNE 3.5 mph - N/A   Clear
10:15 PM 17.6 °F - 10.4 °F 73% 30.19 in 10.0 mi Calm Calm - N/A   Clear
10:35 PM 17.6 °F - 10.4 °F 73% 30.19 in 10.0 mi Calm Calm - N/A   Clear
10:55 PM 15.8 °F 10.2 °F 10.4 °F 79% 30.17 in 10.0 mi East 3.5 mph - N/A   Clear
11:15 PM 14.0 °F - 10.4 °F 86% 30.17 in 10.0 mi Calm Calm - N/A   Clear
11:35 PM 15.8 °F - 10.4 °F 79% 30.15 in 10.0 mi Calm Calm - N/A   Clear
11:55 PM 14.0 °F 8.2 °F 10.4 °F 86% 30.13 in 10.0 mi East 3.5 mph - N/A   Clear